QPF
0.04 0.04 0.03 0.02 0.02 0.02 0.01 0.02 0.02 0.02 0.01 0.01 0.01 0.02 0.03 0.03 0.04 0.05 0.06 0.06 0.06 0.06 0.07 0.08 0.09 0.09 0.06 0.04 0.04 0.05 0.05 0.04 0.04 0.04 0.04 0.03 0.03 0.04
0.03 0.03 0.03 0.03 0.02 0.02 0.02 0.01 0.01 0.02 0.01 0.00 0.00 0.01 0.02 0.02 0.03 0.04 0.05 0.06 0.06 0.05 0.05 0.06 0.07 0.08 0.07 0.04 0.03 0.03 0.03 0.04 0.04 0.04 0.04 0.05 0.04 0.05
0.02 0.02 0.02 0.02 0.02 0.02 0.02 0.01 0.01 0.01 0.01 0.00 0.00 0.00 0.01 0.01 0.02 0.02 0.04 0.05 0.05 0.05 0.04 0.04 0.05 0.05 0.06 0.06 0.04 0.02 0.02 0.02 0.03 0.03 0.03 0.03 0.04 0.04
0.01 0.01 0.01 0.02 0.02 0.02 0.02 0.02 0.01 0.01 0.01 0.01 0.00 0.00 0.01 0.01 0.01 0.02 0.02 0.03 0.04 0.05 0.05 0.04 0.04 0.04 0.04 0.04 0.04 0.03 0.03 0.02 0.02 0.02 0.02 0.03 0.03 0.03
0.01 0.01 0.01 0.01 0.01 0.01 0.02 0.02 0.01 0.01 0.01 0.01 0.00 0.00 0.01 0.01 0.01 0.01 0.01 0.02 0.02 0.03 0.04 0.04 0.04 0.04 0.03 0.03 0.03 0.03 0.03 0.03 0.02 0.02 0.02 0.02 0.02 0.03
0.01 0.01 0.01 0.01 0.01 0.01 0.01 0.02 0.02 0.01 0.01 0.01 0.01 0.01 0.01 0.01 0.01 0.01 0.02 0.02 0.02 0.02 0.03 0.04 0.04 0.03 0.04 0.03 0.02 0.02 0.02 0.02 0.02 0.02 0.02 0.02 0.02 0.02
0.01 0.01 0.01 0.01 0.01 0.01 0.02 0.02 0.02 0.02 0.01 0.01 0.01 0.01 0.01 0.01 0.02 0.02 0.02 0.02 0.02 0.02 0.03 0.04 0.04 0.03 0.03 0.04 0.03 0.02 0.01 0.01 0.01 0.01 0.02 0.02 0.02 0.02
0.02 0.01 0.01 0.01 0.02 0.02 0.02 0.02 0.02 0.03 0.02 0.02 0.02 0.01 0.01 0.01 0.01 0.02 0.02 0.02 0.03 0.03 0.04 0.04 0.04 0.04 0.03 0.03 0.03 0.02 0.02 0.02 0.02 0.01 0.01 0.01 0.01 0.02
0.02 0.01 0.01 0.01 0.02 0.02 0.02 0.02 0.02 0.02 0.02 0.02 0.02 0.01 0.01 0.01 0.01 0.02 0.02 0.02 0.03 0.04 0.06 0.07 0.06 0.05 0.04 0.03 0.03 0.03 0.02 0.02 0.02 0.02 0.01 0.02 0.02 0.02
0.02 0.02 0.01 0.01 0.02 0.02 0.03 0.04 0.03 0.02 0.02 0.02 0.01 0.01 0.01 0.01 0.02 0.03 0.03 0.04 0.03 0.03 0.05 0.07 0.08 0.08 0.07 0.04 0.03 0.02 0.02 0.02 0.02 0.01 0.01 0.01 0.01 0.01
0.02 0.02 0.02 0.02 0.02 0.03 0.03 0.04 0.04 0.03 0.02 0.02 0.02 0.02 0.02 0.02 0.02 0.03 0.04 0.04 0.03 0.03 0.04 0.05 0.07 0.07 0.08 0.07 0.04 0.03 0.02 0.02 0.02 0.02 0.02 0.02 0.02 0.02
0.02 0.02 0.02 0.02 0.03 0.03 0.03 0.03 0.04 0.03 0.02 0.02 0.02 0.03 0.02 0.02 0.02 0.02 0.03 0.04 0.03 0.04 0.04 0.05 0.06 0.07 0.08 0.09 0.07 0.04 0.03 0.02 0.02 0.02 0.01 0.01 0.01 0.01
0.03 0.02 0.02 0.03 0.03 0.04 0.04 0.03 0.04 0.04 0.03 0.03 0.03 0.03 0.03 0.02 0.02 0.01 0.02 0.03 0.04 0.04 0.06 0.07 0.08 0.07 0.07 0.08 0.08 0.07 0.05 0.03 0.02 0.02 0.02 0.01 0.01 0.01
0.02 0.02 0.02 0.03 0.04 0.05 0.04 0.04 0.04 0.04 0.04 0.03 0.03 0.02 0.02 0.02 0.02 0.01 0.01 0.02 0.03 0.04 0.05 0.07 0.09 0.09 0.08 0.06 0.07 0.07 0.06 0.05 0.04 0.03 0.03 0.02 0.02 0.01
0.02 0.02 0.03 0.03 0.03 0.04 0.05 0.05 0.04 0.04 0.04 0.04 0.03 0.02 0.02 0.02 0.02 0.02 0.02 0.02 0.02 0.03 0.05 0.07 0.07 0.08 0.08 0.06 0.05 0.06 0.07 0.07 0.05 0.04 0.04 0.03 0.02 0.02
0.02 0.03 0.03 0.03 0.03 0.03 0.03 0.03 0.03 0.03 0.04 0.03 0.03 0.02 0.02 0.02 0.02 0.02 0.02 0.02 0.03 0.04 0.04 0.05 0.06 0.06 0.07 0.06 0.05 0.05 0.05 0.05 0.05 0.04 0.04 0.03 0.02 0.01
0.03 0.03 0.04 0.04 0.03 0.03 0.02 0.03 0.03 0.03 0.03 0.03 0.02 0.02 0.02 0.02 0.02 0.02 0.02 0.03 0.03 0.03 0.04 0.04 0.05 0.05 0.06 0.05 0.05 0.04 0.04 0.04 0.04 0.04 0.04 0.03 0.02 0.01
0.05 0.05 0.03 0.03 0.03 0.03 0.02 0.03 0.03 0.03 0.02 0.02 0.02 0.02 0.02 0.02 0.02 0.02 0.02 0.02 0.02 0.03 0.03 0.04 0.04 0.05 0.05 0.06 0.05 0.04 0.04 0.04 0.04 0.04 0.04 0.03 0.03 0.02
0.05 0.04 0.03 0.02 0.02 0.02 0.02 0.02 0.02 0.02 0.02 0.02 0.02 0.02 0.02 0.02 0.03 0.02 0.02 0.02 0.02 0.02 0.03 0.03 0.03 0.04 0.05 0.06 0.06 0.05 0.04 0.04 0.04 0.05 0.05 0.04 0.03 0.02
0.03 0.03 0.03 0.02 0.02 0.02 0.02 0.02 0.02 0.02 0.02 0.02 0.02 0.02 0.02 0.03 0.03 0.03 0.02 0.02 0.02 0.02 0.02 0.02 0.03 0.03 0.04 0.05 0.05 0.05 0.05 0.05 0.06 0.05 0.05 0.05 0.04 0.03
0.02 0.02 0.03 0.02 0.02 0.02 0.02 0.02 0.02 0.02 0.02 0.02 0.02 0.02 0.02 0.03 0.03 0.03 0.03 0.02 0.02 0.02 0.02 0.02 0.02 0.02 0.03 0.05 0.05 0.05 0.05 0.06 0.07 0.07 0.07 0.07 0.06 0.04
0.02 0.02 0.03 0.03 0.03 0.02 0.02 0.02 0.02 0.02 0.02 0.02 0.02 0.02 0.02 0.02 0.03 0.03 0.03 0.02 0.02 0.02 0.02 0.02 0.02 0.02 0.03 0.05 0.05 0.05 0.05 0.06 0.08 0.08 0.08 0.08 0.08 0.06
0.03 0.02 0.03 0.03 0.03 0.03 0.03 0.03 0.03 0.02 0.02 0.02 0.02 0.02 0.02 0.02 0.02 0.02 0.02 0.02 0.02 0.02 0.02 0.02 0.02 0.03 0.03 0.04 0.04 0.05 0.06 0.06 0.07 0.07 0.07 0.07 0.06 0.05
MSLP
1024.49 1025.02 1025.53 1026.01 1026.44 1026.79 1027.07 1027.29 1027.45 1027.57 1027.67 1027.75 1027.83 1027.88 1027.90 1027.88 1027.80 1027.66 1027.47 1027.23 1026.96 1026.67 1026.37 1026.08 1025.79 1025.52 1025.24 1024.97 1024.69 1024.41 1024.12 1023.82 1023.53 1023.23 1022.94 1022.64 1022.34 1022.03
1024.18 1024.72 1025.25 1025.74 1026.18 1026.56 1026.86 1027.09 1027.26 1027.39 1027.49 1027.57 1027.64 1027.68 1027.69 1027.65 1027.57 1027.43 1027.23 1026.99 1026.71 1026.42 1026.11 1025.81 1025.51 1025.21 1024.92 1024.63 1024.34 1024.04 1023.73 1023.42 1023.11 1022.81 1022.50 1022.19 1021.88 1021.56
1023.76 1024.31 1024.85 1025.36 1025.83 1026.22 1026.55 1026.80 1027.00 1027.15 1027.26 1027.35 1027.41 1027.45 1027.45 1027.41 1027.31 1027.16 1026.96 1026.71 1026.42 1026.11 1025.79 1025.46 1025.14 1024.83 1024.52 1024.21 1023.91 1023.60 1023.29 1022.98 1022.67 1022.37 1022.06 1021.75 1021.43 1021.10
1023.22 1023.78 1024.34 1024.88 1025.36 1025.79 1026.15 1026.43 1026.66 1026.83 1026.96 1027.06 1027.13 1027.17 1027.17 1027.12 1027.02 1026.86 1026.65 1026.39 1026.08 1025.75 1025.41 1025.06 1024.71 1024.38 1024.05 1023.73 1023.42 1023.11 1022.81 1022.51 1022.21 1021.91 1021.61 1021.30 1020.99 1020.66
1022.60 1023.19 1023.76 1024.32 1024.83 1025.28 1025.67 1025.98 1026.24 1026.43 1026.59 1026.70 1026.78 1026.82 1026.82 1026.77 1026.67 1026.50 1026.28 1026.01 1025.69 1025.35 1024.98 1024.60 1024.23 1023.86 1023.51 1023.18 1022.86 1022.55 1022.26 1021.97 1021.69 1021.40 1021.11 1020.81 1020.50 1020.17
1021.97 1022.57 1023.17 1023.74 1024.26 1024.73 1025.13 1025.47 1025.73 1025.95 1026.11 1026.23 1026.32 1026.36 1026.37 1026.33 1026.23 1026.07 1025.85 1025.57 1025.24 1024.88 1024.49 1024.08 1023.68 1023.29 1022.92 1022.56 1022.23 1021.92 1021.62 1021.34 1021.07 1020.80 1020.51 1020.22 1019.90 1019.57
1021.39 1022.00 1022.60 1023.17 1023.70 1024.16 1024.56 1024.89 1025.15 1025.36 1025.52 1025.65 1025.73 1025.78 1025.80 1025.76 1025.67 1025.53 1025.32 1025.05 1024.72 1024.34 1023.94 1023.51 1023.08 1022.66 1022.25 1021.87 1021.52 1021.19 1020.89 1020.60 1020.33 1020.06 1019.77 1019.47 1019.15 1018.81
1020.91 1021.51 1022.10 1022.65 1023.15 1023.58 1023.95 1024.25 1024.49 1024.68 1024.82 1024.93 1025.01 1025.07 1025.09 1025.07 1025.00 1024.88 1024.69 1024.43 1024.12 1023.75 1023.33 1022.89 1022.44 1021.98 1021.54 1021.13 1020.74 1020.38 1020.06 1019.75 1019.46 1019.18 1018.89 1018.58 1018.25 1017.88
1020.53 1021.10 1021.65 1022.15 1022.60 1022.98 1023.30 1023.55 1023.74 1023.89 1024.00 1024.09 1024.16 1024.22 1024.25 1024.25 1024.21 1024.12 1023.97 1023.74 1023.45 1023.09 1022.68 1022.24 1021.76 1021.28 1020.80 1020.35 1019.92 1019.53 1019.17 1018.83 1018.52 1018.21 1017.90 1017.57 1017.23 1016.85
1020.22 1020.74 1021.22 1021.66 1022.04 1022.35 1022.59 1022.77 1022.91 1023.00 1023.08 1023.15 1023.21 1023.27 1023.32 1023.35 1023.35 1023.29 1023.18 1023.00 1022.74 1022.41 1022.02 1021.57 1021.09 1020.58 1020.08 1019.59 1019.12 1018.68 1018.28 1017.90 1017.55 1017.22 1016.88 1016.54 1016.18 1015.80
1019.91 1020.36 1020.77 1021.12 1021.42 1021.65 1021.82 1021.94 1022.01 1022.07 1022.11 1022.16 1022.22 1022.28 1022.35 1022.41 1022.45 1022.44 1022.38 1022.24 1022.03 1021.73 1021.36 1020.93 1020.45 1019.93 1019.41 1018.88 1018.38 1017.90 1017.45 1017.04 1016.65 1016.28 1015.92 1015.56 1015.19 1014.79
1019.56 1019.92 1020.24 1020.52 1020.74 1020.90 1021.00 1021.07 1021.10 1021.12 1021.15 1021.19 1021.25 1021.33 1021.42 1021.51 1021.58 1021.62 1021.60 1021.51 1021.34 1021.08 1020.75 1020.33 1019.86 1019.35 1018.81 1018.26 1017.72 1017.21 1016.72 1016.27 1015.84 1015.44 1015.05 1014.67 1014.28 1013.88
1019.11 1019.39 1019.64 1019.85 1020.01 1020.12 1020.18 1020.21 1020.23 1020.24 1020.26 1020.30 1020.37 1020.47 1020.58 1020.70 1020.80 1020.87 1020.89 1020.84 1020.70 1020.48 1020.17 1019.78 1019.33 1018.82 1018.28 1017.71 1017.15 1016.61 1016.08 1015.58 1015.12 1014.68 1014.26 1013.85 1013.44 1013.02
1018.59 1018.80 1019.00 1019.16 1019.28 1019.36 1019.42 1019.44 1019.46 1019.48 1019.51 1019.57 1019.66 1019.76 1019.89 1020.02 1020.14 1020.22 1020.25 1020.22 1020.11 1019.91 1019.63 1019.26 1018.82 1018.32 1017.78 1017.20 1016.62 1016.04 1015.47 1014.93 1014.42 1013.93 1013.46 1013.01 1012.57 1012.14
1018.03 1018.20 1018.37 1018.51 1018.62 1018.71 1018.77 1018.81 1018.85 1018.89 1018.95 1019.02 1019.11 1019.23 1019.35 1019.48 1019.58 1019.66 1019.69 1019.66 1019.55 1019.36 1019.08 1018.73 1018.29 1017.79 1017.24 1016.65 1016.04 1015.43 1014.81 1014.22 1013.64 1013.09 1012.57 1012.06 1011.57 1011.09
1017.51 1017.67 1017.82 1017.97 1018.09 1018.19 1018.28 1018.35 1018.42 1018.49 1018.56 1018.64 1018.73 1018.84 1018.94 1019.04 1019.11 1019.16 1019.16 1019.10 1018.97 1018.77 1018.49 1018.12 1017.68 1017.18 1016.61 1016.00 1015.35 1014.68 1014.01 1013.35 1012.70 1012.07 1011.47 1010.89 1010.34 1009.80
1017.12 1017.27 1017.43 1017.58 1017.72 1017.85 1017.96 1018.06 1018.15 1018.23 1018.31 1018.38 1018.46 1018.53 1018.59 1018.64 1018.67 1018.66 1018.61 1018.51 1018.34 1018.11 1017.80 1017.41 1016.95 1016.42 1015.82 1015.17 1014.47 1013.75 1013.01 1012.27 1011.53 1010.82 1010.13 1009.47 1008.84 1008.23
1016.89 1017.04 1017.20 1017.36 1017.51 1017.65 1017.77 1017.88 1017.97 1018.04 1018.11 1018.16 1018.20 1018.22 1018.23 1018.21 1018.17 1018.10 1017.98 1017.82 1017.60 1017.33 1016.98 1016.56 1016.06 1015.50 1014.86 1014.16 1013.41 1012.62 1011.80 1010.98 1010.15 1009.35 1008.57 1007.82 1007.11 1006.44
1016.80 1016.95 1017.10 1017.24 1017.39 1017.51 1017.62 1017.72 1017.79 1017.84 1017.87 1017.87 1017.86 1017.82 1017.76 1017.68 1017.57 1017.42 1017.25 1017.03 1016.75 1016.43 1016.04 1015.58 1015.04 1014.43 1013.75 1013.00 1012.19 1011.33 1010.44 1009.54 1008.64 1007.76 1006.90 1006.08 1005.30 1004.57
1016.79 1016.91 1017.03 1017.15 1017.25 1017.35 1017.42 1017.47 1017.50 1017.51 1017.49 1017.44 1017.37 1017.27 1017.15 1017.00 1016.83 1016.62 1016.39 1016.11 1015.80 1015.43 1014.99 1014.49 1013.92 1013.27 1012.54 1011.74 1010.88 1009.97 1009.02 1008.06 1007.10 1006.15 1005.24 1004.36 1003.54 1002.76
1016.76 1016.83 1016.90 1016.96 1017.02 1017.05 1017.07 1017.07 1017.04 1016.99 1016.91 1016.81 1016.69 1016.54 1016.36 1016.16 1015.94 1015.69 1015.42 1015.11 1014.75 1014.35 1013.88 1013.35 1012.74 1012.06 1011.29 1010.46 1009.56 1008.60 1007.62 1006.62 1005.62 1004.64 1003.69 1002.79 1001.93 1001.14
1016.60 1016.61 1016.61 1016.61 1016.59 1016.56 1016.51 1016.44 1016.36 1016.25 1016.12 1015.98 1015.81 1015.62 1015.41 1015.18 1014.93 1014.65 1014.35 1014.02 1013.65 1013.22 1012.73 1012.17 1011.54 1010.83 1010.04 1009.17 1008.25 1007.28 1006.27 1005.25 1004.24 1003.25 1002.29 1001.38 1000.52 999.71
1016.24 1016.18 1016.11 1016.03 1015.94 1015.84 1015.72 1015.60 1015.46 1015.30 1015.13 1014.95 1014.75 1014.54 1014.31 1014.07 1013.81 1013.53 1013.22 1012.88 1012.49 1012.05 1011.54 1010.96 1010.31 1009.58 1008.77 1007.88 1006.94 1005.96 1004.95 1003.93 1002.92 1001.93 1000.97 1000.07 999.20 998.40
Thickness
5448 5448 5448 5448 5449 5449 5449 5449 5449 5451 5457 5459 5460 5463 5464 5466 5469 5472 5475 5478 5481 5485 5489 5492 5496 5499 5503 5507 5510 5512 5514 5516 5518 5519 5520 5522 5523 5525
5435 5434 5434 5435 5435 5434 5434 5435 5435 5438 5441 5447 5447 5448 5449 5451 5454 5456 5460 5463 5467 5470 5474 5478 5482 5485 5489 5492 5497 5499 5501 5503 5505 5506 5507 5509 5511 5513
5421 5421 5421 5421 5421 5421 5421 5421 5421 5422 5425 5430 5431 5433 5434 5436 5439 5441 5444 5447 5452 5456 5460 5465 5469 5472 5475 5478 5483 5485 5488 5489 5492 5493 5494 5496 5498 5501
5408 5408 5408 5408 5408 5408 5408 5408 5409 5409 5411 5413 5416 5417 5420 5422 5424 5426 5429 5432 5437 5442 5446 5450 5454 5458 5460 5464 5468 5471 5473 5474 5476 5478 5480 5483 5485 5486
5395 5395 5395 5394 5395 5396 5396 5396 5397 5397 5398 5400 5402 5403 5405 5407 5409 5411 5414 5417 5422 5426 5431 5435 5439 5443 5446 5448 5453 5457 5458 5460 5462 5463 5465 5467 5469 5472
5381 5382 5382 5382 5383 5383 5384 5385 5385 5384 5385 5386 5388 5389 5390 5392 5393 5395 5398 5402 5406 5411 5415 5420 5423 5427 5430 5434 5439 5442 5443 5444 5446 5448 5450 5452 5454 5457
5368 5368 5369 5370 5371 5371 5372 5373 5372 5372 5372 5372 5374 5375 5377 5377 5379 5380 5383 5386 5391 5394 5399 5404 5408 5412 5415 5419 5421 5426 5428 5429 5431 5433 5434 5437 5439 5441
5355 5355 5356 5357 5358 5360 5361 5362 5362 5361 5361 5361 5363 5364 5365 5365 5366 5367 5368 5371 5376 5381 5383 5388 5391 5396 5400 5405 5408 5411 5413 5414 5416 5417 5419 5421 5423 5425
5343 5343 5344 5345 5345 5346 5347 5348 5349 5350 5352 5352 5352 5353 5353 5354 5353 5353 5355 5358 5364 5367 5367 5374 5377 5381 5385 5389 5392 5395 5397 5398 5400 5401 5403 5405 5407 5409
5332 5332 5332 5333 5333 5333 5334 5335 5335 5337 5338 5339 5342 5343 5342 5341 5342 5343 5343 5345 5348 5351 5353 5357 5362 5365 5370 5374 5377 5379 5381 5382 5383 5385 5387 5389 5391 5393
5321 5322 5322 5322 5322 5322 5321 5322 5323 5324 5324 5325 5327 5328 5328 5329 5329 5328 5329 5331 5334 5338 5339 5343 5348 5350 5355 5360 5363 5364 5365 5366 5367 5369 5370 5373 5375 5377
5311 5312 5311 5312 5311 5310 5310 5309 5310 5311 5311 5311 5312 5314 5314 5315 5316 5317 5318 5318 5320 5323 5327 5328 5331 5332 5340 5347 5349 5349 5349 5350 5351 5352 5354 5356 5358 5360
5301 5301 5301 5301 5301 5301 5300 5299 5300 5300 5298 5298 5298 5299 5300 5301 5303 5305 5306 5307 5308 5311 5314 5313 5316 5318 5320 5329 5334 5335 5334 5335 5335 5336 5338 5340 5342 5343
5292 5292 5291 5291 5291 5290 5289 5288 5288 5287 5286 5285 5285 5286 5288 5289 5291 5292 5294 5295 5296 5299 5300 5300 5302 5305 5306 5310 5318 5321 5321 5320 5321 5323 5323 5324 5326 5327
5283 5282 5282 5281 5279 5278 5277 5277 5275 5274 5274 5273 5274 5275 5276 5277 5277 5279 5280 5282 5283 5285 5287 5289 5290 5292 5293 5296 5303 5307 5308 5308 5308 5309 5309 5310 5312 5313
5272 5272 5271 5270 5269 5267 5265 5264 5263 5263 5263 5263 5263 5263 5263 5263 5265 5266 5268 5269 5270 5273 5275 5276 5278 5279 5281 5285 5289 5293 5295 5296 5297 5296 5296 5297 5298 5300
5261 5260 5258 5257 5255 5255 5254 5253 5252 5252 5251 5252 5252 5251 5251 5252 5253 5255 5256 5257 5258 5260 5263 5264 5265 5267 5271 5273 5277 5281 5283 5285 5285 5284 5284 5286 5287 5288
5252 5250 5249 5248 5247 5245 5244 5243 5242 5242 5242 5242 5242 5241 5241 5241 5242 5243 5245 5246 5247 5250 5251 5252 5252 5255 5258 5263 5266 5269 5271 5273 5274 5273 5273 5275 5278 5279
5242 5241 5240 5239 5237 5236 5235 5234 5234 5233 5233 5232 5232 5231 5231 5231 5232 5233 5235 5236 5237 5239 5240 5240 5241 5242 5245 5252 5258 5259 5260 5261 5262 5262 5263 5264 5267 5270
5232 5231 5231 5229 5228 5227 5226 5226 5225 5224 5223 5223 5222 5222 5221 5221 5222 5223 5225 5227 5227 5228 5230 5231 5232 5233 5235 5240 5245 5249 5249 5250 5251 5253 5254 5254 5257 5259
5223 5222 5221 5220 5219 5218 5217 5217 5216 5216 5215 5214 5213 5212 5212 5212 5213 5215 5216 5219 5219 5219 5221 5223 5224 5225 5226 5227 5231 5238 5240 5241 5243 5244 5245 5245 5247 5250
5213 5212 5211 5210 5210 5209 5208 5207 5207 5206 5206 5205 5205 5204 5204 5205 5206 5207 5208 5209 5210 5211 5213 5214 5214 5214 5215 5218 5222 5227 5230 5233 5234 5235 5236 5238 5238 5242
5203 5203 5202 5202 5201 5200 5200 5199 5198 5198 5198 5197 5196 5196 5196 5197 5198 5199 5200 5201 5201 5202 5203 5203 5204 5205 5207 5209 5212 5216 5220 5223 5225 5227 5230 5231 5233 5236